Bar Harbor, ME

9:15 PM EST on November 13, 2019 (GMT -0500)
Hancock County-Bar Harbor

Weather History for KBHB - June, 2019

Change the Weather History Date:

Sunday, June 9, 2019

  Actual Average Record
Temperature  
Mean Temperature 56 °F -  
Max Temperature 70 °F 71 °F 91 °F (2004)
Min Temperature 43 °F 50 °F 38 °F (1975)
Degree Days  
Heating Degree Days 8    
Growing Degree Days 6 (Base 50)    
Moisture  
Dew Point 43 °F    
Average Humidity 61    
Maximum Humidity 93    
Minimum Humidity 29    
Precipitation  
Precipitation 0.00 in - - ()
Sea Level Pressure  
Sea Level Pressure 30.30 in    
Wind  
Wind Speed 5 mph (SSW)    
Max Wind Speed 17 mph    
Max Gust Speed 23 mph    
Visibility 10 miles    
Events      
Averages and records for this station are not official NWS values.
T = Trace of Precipitation, MM = Missing Value Source: NWS Daily Summary

Daily Weather History Graph

Daily Weather History Graph

Search for Another Location

Airport or City:

Astronomy

Jun. 09, 2019 Rise Set
Actual Time 4:49 AM EDT 8:16 PM EDT
Civil Twilight 4:12 AM EDT 8:53 PM EDT
Nautical Twilight 3:24 AM EDT 9:41 PM EDT
Astronomical Twilight 2:23 AM EDT 10:42 PM EDT
Moon 11:31 AM EDT (6/9) 12:47 AM EDT (6/9)
Length of Visible Light 16h 40m
Length of Day
15h 27m
Waxing Crescent, 43% of the Moon is Illuminated
Jun 9
Waxing Crescent
Jun 10
First Quarter
Jun 17
Full
Jun 25
Last Quarter
Jul 2
New

Hourly Weather History & Observations

Time (EDT) Temp. Windchill Dew Point Humidity Pressure Visibility Wind Dir Wind Speed Gust Speed Precip Events Conditions
12:56 AM 46.9 °F - 44.1 °F 90% 30.29 in 10.0 mi Calm Calm - N/A   Clear
1:56 AM 46.0 °F 44.8 °F 44.1 °F 93% 30.31 in 10.0 mi North 3.5 mph - N/A   Clear
2:56 AM 45.0 °F - 43.0 °F 93% 30.31 in 10.0 mi Calm Calm - N/A   Clear
3:56 AM 44.1 °F - 42.1 °F 93% 30.31 in 10.0 mi Calm Calm - N/A   Clear
4:56 AM 43.0 °F - 41.0 °F 93% 30.33 in 10.0 mi Calm Calm - N/A   Clear
5:56 AM 45.0 °F - 43.0 °F 93% 30.35 in 10.0 mi Calm Calm - N/A   Clear
6:56 AM 52.0 °F - 48.0 °F 86% 30.35 in 10.0 mi Calm Calm - N/A   Clear
7:56 AM 60.1 °F - 44.1 °F 55% 30.36 in 10.0 mi Calm Calm - N/A   Clear
8:56 AM 64.9 °F - 39.9 °F 40% 30.36 in 10.0 mi ESE 3.5 mph - N/A   Clear
9:56 AM 66.9 °F - 37.0 °F 33% 30.36 in 10.0 mi East 3.5 mph - N/A   Clear
10:56 AM 70.0 °F - 39.0 °F 32% 30.35 in 10.0 mi South 10.4 mph - N/A   Clear
11:56 AM 69.1 °F - 39.0 °F 33% 30.34 in 10.0 mi SSW 15.0 mph - N/A   Clear
12:56 PM 69.1 °F - 41.0 °F 36% 30.34 in 10.0 mi SSW 11.5 mph - N/A   Clear
1:56 PM 69.1 °F - 42.1 °F 38% 30.31 in 10.0 mi SSW 12.7 mph - N/A   Clear
2:56 PM 70.0 °F - 36.0 °F 29% 30.30 in 10.0 mi SSW 17.3 mph 23.0 mph N/A   Clear
3:56 PM 69.1 °F - 43.0 °F 39% 30.28 in 10.0 mi SSW 15.0 mph - N/A   Clear
4:56 PM 66.9 °F - 46.0 °F 47% 30.27 in 10.0 mi SSW 13.8 mph - N/A   Clear
5:56 PM 66.0 °F - 48.0 °F 52% 30.27 in 10.0 mi SSW 12.7 mph - N/A   Scattered Clouds
6:56 PM 63.0 °F - 46.9 °F 56% 30.26 in 10.0 mi SSW 11.5 mph - N/A   Clear
7:56 PM 59.0 °F - 45.0 °F 60% 30.26 in 10.0 mi SSW 9.2 mph - N/A   Clear
8:56 PM 57.0 °F - 46.0 °F 67% 30.26 in 10.0 mi SSW 10.4 mph - N/A   Clear
9:56 PM 55.9 °F - 46.0 °F 69% 30.25 in 10.0 mi SSW 11.5 mph - N/A   Clear
10:56 PM 57.0 °F - 46.0 °F 67% 30.25 in 10.0 mi SSW 9.2 mph - N/A   Clear
11:56 PM 55.9 °F - 46.0 °F 69% 30.24 in 10.0 mi SSW 9.2 mph - N/A   Clear